Simultaneous Nadir Overpasses (SNOs) Predictions

Prediction of SNOs between GOES-16 and AQUA Satellite Orbit:

Table of predicted SNOs for the next 14.0 days since TLE Epoch: 7/3/2020
Index Date Time (GOES-16) GOES-16 Lat,Lon AQUA Lat,Lon Distance(km) Time Diff (sec)
1 07/04/2020 18:29:18 -0.01, -75.20 0.43, -73.13 235.14 80
2 07/05/2020 06:50:34 0.02, -75.20 0.66, -78.29 351.31 80
3 07/07/2020 06:38:22 0.02, -75.20 0.07, -75.32 14.51 80
4 07/09/2020 06:23:31 0.02, -75.22 -0.59, -72.37 323.41 80
5 07/09/2020 18:44:55 -0.02, -75.22 -0.50, -77.57 266.28 80
6 07/11/2020 18:35:23 -0.02, -75.24 0.10, -74.60 72.55 80
7 07/13/2020 18:23:12 -0.03, -75.27 0.77, -71.65 411.98 80
8 07/14/2020 06:44:28 0.03, -75.28 0.33, -76.81 173.43 80
9 07/16/2020 06:29:36 0.03, -75.31 -0.27, -73.85 166.43 80
10 07/16/2020 18:50:59 -0.04, -75.32 -0.81, -79.04 423.12 80
